Regional Weather Roundup
Issued by NWS

Home | Current Version | Previous Version | Text Only | Print | Product List | Glossary Off
Versions: 1 2 3 4 5 6 7 8 9 10 11 12 13 14 15 16 17 18 19 20 21 22 23 24 25 26 27 28 29 30 31 32 33 34 35 36 37 38 39 40 41 42 43 44 45 46 47 48 49 50

000
ASUS43 KDMX 232006
RWRIA

WEATHER ROUNDUP FOR IOWA
NATIONAL WEATHER SERVICE DES MOINES IA
200 PM CST TUE JAN 23 2018

NOTE: "FAIR" INDICATES FEW OR NO CLOUDS BELOW 12,000 FEET WITH NO
SIGNIFICANT WEATHER AND/OR OBSTRUCTIONS TO VISIBILITY.

* - THESE STATIONS ARE NOT NWS STATIONS...THUS NOT UNDER NWS
QUALITY CONTROL.  THEY ALSO DO NOT REPORT WEATHER SUCH
AS PRECIPITATION OR FOG.

IAZ001>003-012>014-020>022-031>034-043>046-232100-
   NORTHWEST IOWA

CITY           SKY/WX    TMP DP  RH WIND       PRES   REMARKS
CARROLL *      CLOUDY    25  21  86 NW12G17   30.13S WCI  14
CHEROKEE *     CLOUDY    24  21  89 W12       30.13F WCI  13
DENISON *      CLOUDY    25  21  86 NW9       30.16R WCI  15
LE MARS *      CLOUDY    23  21  93 W9        30.14F WCI  13
ORANGE CITY *  CLOUDY    23  21  93 W8        30.11F WCI  14
SHELDON *      CLOUDY    23  19  86 NW9       30.10S WCI  13
SIOUX CITY     CLOUDY    23  20  88 W7        30.16F WCI  15
SPENCER        MIX PCPN  24  18  77 NW10      30.10F WCI  14
STORM LAKE *     N/A     23  19  86 NW9       30.11S WCI  13
$$

IAZ055>058-069>071-079>083-090>094-232100-
   SOUTHWEST IOWA

CITY           SKY/WX    TMP DP  RH WIND       PRES   REMARKS
ATLANTIC *     CLOUDY    27  23  86 W12       30.16R WCI  16
AUDUBON *      CLOUDY    27  21  80 W8        30.14S WCI  18
CLARINDA *     CLOUDY    27  25  93 NW12        N/A  WCI  16
COUNCIL BLFS * CLOUDY    23  23 100 W10       30.18S WCI  12
CRESTON *      CLOUDY    25  21  86 W15       30.15R WCI  12
HARLAN  *      CLOUDY    25  25 100 W13       30.20R WCI  13
LAMONI         CLOUDY    27  21  78 W17       30.13S WCI  14
RED OAK *      CLOUDY    27  23  86 W12G18    30.19R WCI  16
SHENANDOAH *   CLOUDY    27  23  86 W10       30.21R WCI  17
$$

IAZ047>049-059>061-072>074-084-232100-
   CENTRAL IOWA

CITY           SKY/WX    TMP DP  RH WIND       PRES   REMARKS
AMES           CLOUDY    27  24  89 NW17G25   30.11S WCI  14
ANKENY *       CLOUDY    27  21  80 NW17G24   30.13R WCI  14
BOONE *        CLOUDY    25  21  86 W15       30.10R WCI  12
CHARITON *     CLOUDY    27  23  86 NW14G22   30.12R WCI  15
DES MOINES     CLOUDY    28  21  75 NW15      30.13R WCI  16
GRINNELL*      CLOUDY    28  23  82 W21G28    30.09R WCI  14
KNOXVILLE *    CLOUDY    28  19  69 W18G25    30.10R WCI  16
MARSHALLTOWN   CLOUDY    28  21  75 NW21G29   30.07R WCI  15
NEWTON *       CLOUDY    27  23  86 NW15G23   30.10S WCI  15
PELLA *        CLOUDY    29  22  76 NW15G21   30.12R WCI  17
PERRY *        CLOUDY    26  22  84 NW12      30.14R WCI  16
$$

IAZ004>006-015-016-023>025-035-036-232100-
   NORTH CENTRAL IOWA

CITY           SKY/WX    TMP DP  RH WIND       PRES   REMARKS
ALGONA *       SUNNY     25 N/A N/A NW14      30.10R WCI  13
CLARION *      PTSUNNY   25  23  93 NW17G25   30.09R WCI  11
ESTHERVILLE    FLURRIES  22  17  81 NW14      30.09S WCI   9
FORT DODGE *   CLOUDY    26  20  77 NW12      30.11S WCI  16
MASON CITY     PTSUNNY   22  16  78 NW21      30.08R WCI   6
FOREST CITY *    N/A     25  19  80 NW15      30.07S WCI  12
WEBSTER CITY * CLOUDY    27  19  74 NW18      30.08S WCI  13
IOWA FALLS *   CLOUDY    28  22  78 W18       30.09R WCI  15
$$

IAZ007>011-017>019-026>030-037>042-050>054-066-232100-
   NORTHEAST IOWA

CITY           SKY/WX    TMP DP  RH WIND       PRES   REMARKS
CEDAR RAPIDS   CLOUDY    28  21  75 NW18      30.03R WCI  15
CHARLES CITY * CLOUDY    23  23 100 NW13G18   30.05R WCI  11
CLINTON *      CLOUDY    28  24  85 W21       30.00R WCI  15
DECORAH *      CLOUDY    23  19  86 N14       30.00R WCI  11
DUBUQUE        CLOUDY    24  20  84 NW15      29.99R WCI  11
MONTICELLO *   CLOUDY    25  21  86 NW14      30.02R WCI  13
OELWEIN *      CLOUDY    23  23 100 NW17      30.03R WCI   9
WATERLOO       CLOUDY    24  18  77 NW13G22   30.05R WCI  12
$$

IAZ064-065-067-068-078-232100-
   EAST CENTRAL IOWA

CITY           SKY/WX    TMP DP  RH WIND       PRES   REMARKS
DAVENPORT      CLOUDY    29  22  75 NW18G28   30.03R WCI  16
IOWA CITY      PTSUNNY   31  21  66 NW18G26   30.06R WCI  19
MT. PLEASANT * CLOUDY    32  23  69 NW12      30.06R WCI  23
MUSCATINE *    CLOUDY    32  21  64 NW17G25   30.05R WCI  21
QUAD CITIES    CLOUDY    30  23  75 NW18      30.01R WCI  18
$$

IAZ062-063-075>077-085>089-095>099-232100-
   SOUTHEAST IOWA

CITY           SKY/WX    TMP DP  RH WIND       PRES   REMARKS
BURLINGTON     CLOUDY    32  23  69 NW16G23   30.04R WCI  21
FAIRFIELD *    CLOUDY    30  21  69 NW21G31   30.07R WCI  17
FORT MADISON * CLOUDY    30  25  80 NW15G24   30.06R WCI  19
KEOKUK *       CLOUDY    32  25  74 NW17G23   30.07R WCI  21
OSKALOOSA *    CLOUDY    29  23  79 NW23G30   30.09S WCI  15
OTTUMWA        CLOUDY    31  21  66 NW22G30   30.09R WCI  18
WASHINGTON *     N/A     30  25  80 NW21G30   30.06S WCI  17
$$

ABBREVIATIONS USED IN REMARKS
   TC - TEMPERATURES IN CELSIUS
  WCI - WIND CHILL INDEX
   HX - HEAT INDEX
  VSB - VISIBILITY
$$




USA.gov is the U.S. government's official web portal to all federal, state and local government web resources and services.